owner,sensor,date,latitude,longitude,vertical_datum,sea_water_temperature,qcFlag 
WAVCIS,ioos:station:WAVCIS:CSI06:1,2016-03-01T00:00:00Z,28.8667,-90.4833,100.0,-9.2,11144222 
WAVCIS,ioos:station:WAVCIS:CSI06:1,2016-03-01T01:00:00Z,28.8667,-90.4833,100.0,-9.24,11144222 
WAVCIS,ioos:station:WAVCIS:CSI06:1,2016-03-01T02:00:00Z,28.8667,-90.4833,100.0,-9.27,11144222 
WAVCIS,ioos:station:WAVCIS:CSI06:1,2016-03-01T03:00:00Z,28.8667,-90.4833,100.0,-9.37,11144222 
WAVCIS,ioos:station:WAVCIS:CSI06:1,2016-03-01T04:00:00Z,28.8667,-90.4833,100.0,-9.38,11144222 
WAVCIS,ioos:station:WAVCIS:CSI06:1,2016-03-01T05:00:00Z,28.8667,-90.4833,100.0,-9.33,11144222 
WAVCIS,ioos:station:WAVCIS:CSI06:1,2016-03-01T06:00:00Z,28.8667,-90.4833,100.0,-7.978,11144222 
WAVCIS,ioos:station:WAVCIS:CSI06:1,2016-03-01T07:00:00Z,28.8667,-90.4833,100.0,-7.319,11144222 
WAVCIS,ioos:station:WAVCIS:CSI06:1,2016-03-01T08:00:00Z,28.8667,-90.4833,100.0,-7.161,11144222 
WAVCIS,ioos:station:WAVCIS:CSI06:1,2016-03-01T09:00:00Z,28.8667,-90.4833,100.0,-7.902,11144222 
WAVCIS,ioos:station:WAVCIS:CSI06:1,2016-03-01T10:00:00Z,28.8667,-90.4833,100.0,-8.411,11144222 
WAVCIS,ioos:station:WAVCIS:CSI06:1,2016-03-01T11:00:00Z,28.8667,-90.4833,100.0,-8.314,11144222 
WAVCIS,ioos:station:WAVCIS:CSI06:1,2016-03-01T12:00:00Z,28.8667,-90.4833,100.0,-8.304,11144222 
WAVCIS,ioos:station:WAVCIS:CSI06:1,2016-03-01T13:00:00Z,28.8667,-90.4833,100.0,-8.066,11144222 
WAVCIS,ioos:station:WAVCIS:CSI06:1,2016-03-01T14:00:00Z,28.8667,-90.4833,100.0,-8.356,11144222 
WAVCIS,ioos:station:WAVCIS:CSI06:1,2016-03-01T15:00:00Z,28.8667,-90.4833,100.0,-8.241,11144222 
WAVCIS,ioos:station:WAVCIS:CSI06:1,2016-03-01T16:00:00Z,28.8667,-90.4833,100.0,-8.44,11144222 
WAVCIS,ioos:station:WAVCIS:CSI06:1,2016-03-01T17:00:00Z,28.8667,-90.4833,100.0,-8.76,11144222 
WAVCIS,ioos:station:WAVCIS:CSI06:1,2016-03-01T18:00:00Z,28.8667,-90.4833,100.0,-8.46,11144222 
WAVCIS,ioos:station:WAVCIS:CSI06:1,2016-03-01T19:00:00Z,28.8667,-90.4833,100.0,-8.87,11144222 
WAVCIS,ioos:station:WAVCIS:CSI06:1,2016-03-01T20:00:00Z,28.8667,-90.4833,100.0,-8.67,11144222 
WAVCIS,ioos:station:WAVCIS:CSI06:1,2016-03-01T21:00:00Z,28.8667,-90.4833,100.0,-8.8,11144222 
WAVCIS,ioos:station:WAVCIS:CSI06:1,2016-03-01T22:00:00Z,28.8667,-90.4833,100.0,-8.61,11144222 
WAVCIS,ioos:station:WAVCIS:CSI06:1,2016-03-01T23:00:00Z,28.8667,-90.4833,100.0,-8.45,11144222 
WAVCIS,ioos:station:WAVCIS:CSI06:1,2016-03-02T00:00:00Z,28.8667,-90.4833,100.0,-8.286,11144222 
WAVCIS,ioos:station:WAVCIS:CSI06:1,2016-03-02T01:00:00Z,28.8667,-90.4833,100.0,-7.687,11144222 
WAVCIS,ioos:station:WAVCIS:CSI06:1,2016-03-02T02:00:00Z,28.8667,-90.4833,100.0,-7.574,11144222 
WAVCIS,ioos:station:WAVCIS:CSI06:1,2016-03-02T03:00:00Z,28.8667,-90.4833,100.0,-7.976,11144222 
WAVCIS,ioos:station:WAVCIS:CSI06:1,2016-03-02T04:00:00Z,28.8667,-90.4833,100.0,-8.59,11144222 
WAVCIS,ioos:station:WAVCIS:CSI06:1,2016-03-02T05:00:00Z,28.8667,-90.4833,100.0,-8.7,11144222 
WAVCIS,ioos:station:WAVCIS:CSI06:1,2016-03-02T06:00:00Z,28.8667,-90.4833,100.0,-8.92,11144222 
WAVCIS,ioos:station:WAVCIS:CSI06:1,2016-03-02T07:00:00Z,28.8667,-90.4833,100.0,-8.75,11144222 
WAVCIS,ioos:station:WAVCIS:CSI06:1,2016-03-02T08:00:00Z,28.8667,-90.4833,100.0,-8.92,11144222 
WAVCIS,ioos:station:WAVCIS:CSI06:1,2016-03-02T09:00:00Z,28.8667,-90.4833,100.0,-8.84,11144222 
WAVCIS,ioos:station:WAVCIS:CSI06:1,2016-03-02T10:00:00Z,28.8667,-90.4833,100.0,-8.74,11144222 
WAVCIS,ioos:station:WAVCIS:CSI06:1,2016-03-02T11:00:00Z,28.8667,-90.4833,100.0,-8.76,11144222 
WAVCIS,ioos:station:WAVCIS:CSI06:1,2016-03-02T12:00:00Z,28.8667,-90.4833,100.0,-7.818,11144222 
WAVCIS,ioos:station:WAVCIS:CSI06:1,2016-03-02T13:00:00Z,28.8667,-90.4833,100.0,-6.299,11144222 
WAVCIS,ioos:station:WAVCIS:CSI06:1,2016-03-02T14:00:00Z,28.8667,-90.4833,100.0,-6.66,11144222 
WAVCIS,ioos:station:WAVCIS:CSI06:1,2016-03-02T15:00:00Z,28.8667,-90.4833,100.0,-6.364,11144222 
WAVCIS,ioos:station:WAVCIS:CSI06:1,2016-03-02T16:00:00Z,28.8667,-90.4833,100.0,-6.608,11144222 
WAVCIS,ioos:station:WAVCIS:CSI06:1,2016-03-02T17:00:00Z,28.8667,-90.4833,100.0,-5.904,11144222 
WAVCIS,ioos:station:WAVCIS:CSI06:1,2016-03-02T18:00:00Z,28.8667,-90.4833,100.0,-6.066,11144222 
WAVCIS,ioos:station:WAVCIS:CSI06:1,2016-03-02T19:00:00Z,28.8667,-90.4833,100.0,-6.807,11144222 
WAVCIS,ioos:station:WAVCIS:CSI06:1,2016-03-02T20:00:00Z,28.8667,-90.4833,100.0,-7.285,11144222 
WAVCIS,ioos:station:WAVCIS:CSI06:1,2016-03-02T21:00:00Z,28.8667,-90.4833,100.0,-7.492,11144222 
WAVCIS,ioos:station:WAVCIS:CSI06:1,2016-03-02T22:00:00Z,28.8667,-90.4833,100.0,-7.505,11144222 
WAVCIS,ioos:station:WAVCIS:CSI06:1,2016-03-02T23:00:00Z,28.8667,-90.4833,100.0,-7.705,11144222 
WAVCIS,ioos:station:WAVCIS:CSI06:1,2016-03-03T00:00:00Z,28.8667,-90.4833,100.0,-7.878,11144222 
WAVCIS,ioos:station:WAVCIS:CSI06:1,2016-03-03T01:00:00Z,28.8667,-90.4833,100.0,-7.843,11144222 
WAVCIS,ioos:station:WAVCIS:CSI06:1,2016-03-03T02:00:00Z,28.8667,-90.4833,100.0,-7.913,11144222 
WAVCIS,ioos:station:WAVCIS:CSI06:1,2016-03-03T03:00:00Z,28.8667,-90.4833,100.0,-8.086,11144222 
WAVCIS,ioos:station:WAVCIS:CSI06:1,2016-03-03T04:00:00Z,28.8667,-90.4833,100.0,-8.063,11144222 
WAVCIS,ioos:station:WAVCIS:CSI06:1,2016-03-03T05:00:00Z,28.8667,-90.4833,100.0,-8.105,11144222 
WAVCIS,ioos:station:WAVCIS:CSI06:1,2016-03-03T06:00:00Z,28.8667,-90.4833,100.0,-8.186,11144222 
WAVCIS,ioos:station:WAVCIS:CSI06:1,2016-03-03T07:00:00Z,28.8667,-90.4833,100.0,-8.219,11144222 
WAVCIS,ioos:station:WAVCIS:CSI06:1,2016-03-03T08:00:00Z,28.8667,-90.4833,100.0,-8.294,11144222 
WAVCIS,ioos:station:WAVCIS:CSI06:1,2016-03-03T09:00:00Z,28.8667,-90.4833,100.0,-8.292,11144222 
WAVCIS,ioos:station:WAVCIS:CSI06:1,2016-03-03T10:00:00Z,28.8667,-90.4833,100.0,-8.393,11144222 
WAVCIS,ioos:station:WAVCIS:CSI06:1,2016-03-03T11:00:00Z,28.8667,-90.4833,100.0,-8.18,11144222 
WAVCIS,ioos:station:WAVCIS:CSI06:1,2016-03-03T12:00:00Z,28.8667,-90.4833,100.0,-8.265,11144222 
WAVCIS,ioos:station:WAVCIS:CSI06:1,2016-03-03T13:00:00Z,28.8667,-90.4833,100.0,-8.331,11144222 
WAVCIS,ioos:station:WAVCIS:CSI06:1,2016-03-03T14:00:00Z,28.8667,-90.4833,100.0,-8.43,11144222 
WAVCIS,ioos:station:WAVCIS:CSI06:1,2016-03-03T15:00:00Z,28.8667,-90.4833,100.0,-8.45,11144222 
WAVCIS,ioos:station:WAVCIS:CSI06:1,2016-03-03T16:00:00Z,28.8667,-90.4833,100.0,-8.343,11144222 
WAVCIS,ioos:station:WAVCIS:CSI06:1,2016-03-03T17:00:00Z,28.8667,-90.4833,100.0,-8.49,11144222 
WAVCIS,ioos:station:WAVCIS:CSI06:1,2016-03-03T18:00:00Z,28.8667,-90.4833,100.0,-8.42,11144222 
WAVCIS,ioos:station:WAVCIS:CSI06:1,2016-03-03T19:00:00Z,28.8667,-90.4833,100.0,-8.367,11144222 
WAVCIS,ioos:station:WAVCIS:CSI06:1,2016-03-03T20:00:00Z,28.8667,-90.4833,100.0,-8.337,11144222 
WAVCIS,ioos:station:WAVCIS:CSI06:1,2016-03-03T21:00:00Z,28.8667,-90.4833,100.0,-8.52,11144222 
WAVCIS,ioos:station:WAVCIS:CSI06:1,2016-03-03T22:00:00Z,28.8667,-90.4833,100.0,-8.45,11144222 
WAVCIS,ioos:station:WAVCIS:CSI06:1,2016-03-03T23:00:00Z,28.8667,-90.4833,100.0,-8.59,11144222 
WAVCIS,ioos:station:WAVCIS:CSI06:1,2016-03-04T00:00:00Z,28.8667,-90.4833,100.0,-8.56,11144222 
WAVCIS,ioos:station:WAVCIS:CSI06:1,2016-03-04T01:00:00Z,28.8667,-90.4833,100.0,-8.3,11144222 
WAVCIS,ioos:station:WAVCIS:CSI06:1,2016-03-04T02:00:00Z,28.8667,-90.4833,100.0,-8.169,11144222 
WAVCIS,ioos:station:WAVCIS:CSI06:1,2016-03-04T03:00:00Z,28.8667,-90.4833,100.0,-8.168,11144222 
WAVCIS,ioos:station:WAVCIS:CSI06:1,2016-03-04T04:00:00Z,28.8667,-90.4833,100.0,-8.101,11144222 
WAVCIS,ioos:station:WAVCIS:CSI06:1,2016-03-04T05:00:00Z,28.8667,-90.4833,100.0,-8.072,11144222 
WAVCIS,ioos:station:WAVCIS:CSI06:1,2016-03-04T06:00:00Z,28.8667,-90.4833,100.0,-7.954,11144222 
WAVCIS,ioos:station:WAVCIS:CSI06:1,2016-03-04T07:00:00Z,28.8667,-90.4833,100.0,-8.096,11144222 
WAVCIS,ioos:station:WAVCIS:CSI06:1,2016-03-04T08:00:00Z,28.8667,-90.4833,100.0,-8.202,11144222 
WAVCIS,ioos:station:WAVCIS:CSI06:1,2016-03-04T09:00:00Z,28.8667,-90.4833,100.0,-8.249,11144222 
WAVCIS,ioos:station:WAVCIS:CSI06:1,2016-03-04T10:00:00Z,28.8667,-90.4833,100.0,-8.305,11144222 
WAVCIS,ioos:station:WAVCIS:CSI06:1,2016-03-04T11:00:00Z,28.8667,-90.4833,100.0,-8.367,11144222 
WAVCIS,ioos:station:WAVCIS:CSI06:1,2016-03-04T12:00:00Z,28.8667,-90.4833,100.0,-8.42,11144222 
WAVCIS,ioos:station:WAVCIS:CSI06:1,2016-03-04T13:00:00Z,28.8667,-90.4833,100.0,-8.54,11144222 
WAVCIS,ioos:station:WAVCIS:CSI06:1,2016-03-04T14:00:00Z,28.8667,-90.4833,100.0,-7.228,11144222 
WAVCIS,ioos:station:WAVCIS:CSI06:1,2016-03-04T15:00:00Z,28.8667,-90.4833,100.0,-7.477,11144222 
WAVCIS,ioos:station:WAVCIS:CSI06:1,2016-03-04T16:00:00Z,28.8667,-90.4833,100.0,-7.145,11144222 
WAVCIS,ioos:station:WAVCIS:CSI06:1,2016-03-04T17:00:00Z,28.8667,-90.4833,100.0,-2.342,11144222 
WAVCIS,ioos:station:WAVCIS:CSI06:1,2016-03-04T18:00:00Z,28.8667,-90.4833,100.0,-3.816,11144222 
WAVCIS,ioos:station:WAVCIS:CSI06:1,2016-03-04T19:00:00Z,28.8667,-90.4833,100.0,-4.693,11144222 
WAVCIS,ioos:station:WAVCIS:CSI06:1,2016-03-04T21:00:00Z,28.8667,-90.4833,100.0,-4.961,11144222 
WAVCIS,ioos:station:WAVCIS:CSI06:1,2016-03-04T22:00:00Z,28.8667,-90.4833,100.0,-5.523,11144222 
WAVCIS,ioos:station:WAVCIS:CSI06:1,2016-03-04T23:00:00Z,28.8667,-90.4833,100.0,-1.358,11144222 
WAVCIS,ioos:station:WAVCIS:CSI06:1,2016-03-05T00:00:00Z,28.8667,-90.4833,100.0,-1.46,11144222 
WAVCIS,ioos:station:WAVCIS:CSI06:1,2016-03-05T01:00:00Z,28.8667,-90.4833,100.0,-2.071,11144222 
WAVCIS,ioos:station:WAVCIS:CSI06:1,2016-03-05T02:00:00Z,28.8667,-90.4833,100.0,-2.898,11144222 
WAVCIS,ioos:station:WAVCIS:CSI06:1,2016-03-05T03:00:00Z,28.8667,-90.4833,100.0,-3.729,11144222 
WAVCIS,ioos:station:WAVCIS:CSI06:1,2016-03-05T04:00:00Z,28.8667,-90.4833,100.0,-3.963,11144222 
WAVCIS,ioos:station:WAVCIS:CSI06:1,2016-03-05T05:00:00Z,28.8667,-90.4833,100.0,-4.086,11144222 
WAVCIS,ioos:station:WAVCIS:CSI06:1,2016-03-05T06:00:00Z,28.8667,-90.4833,100.0,-4.766,11144222 
WAVCIS,ioos:station:WAVCIS:CSI06:1,2016-03-05T07:00:00Z,28.8667,-90.4833,100.0,-5.109,11144222 
WAVCIS,ioos:station:WAVCIS:CSI06:1,2016-03-05T08:00:00Z,28.8667,-90.4833,100.0,-5.064,11144222 
WAVCIS,ioos:station:WAVCIS:CSI06:1,2016-03-05T09:00:00Z,28.8667,-90.4833,100.0,-4.961,11144222 
WAVCIS,ioos:station:WAVCIS:CSI06:1,2016-03-05T10:00:00Z,28.8667,-90.4833,100.0,-4.774,11144222 
WAVCIS,ioos:station:WAVCIS:CSI06:1,2016-03-05T11:00:00Z,28.8667,-90.4833,100.0,-4.981,11144222 
WAVCIS,ioos:station:WAVCIS:CSI06:1,2016-03-05T12:00:00Z,28.8667,-90.4833,100.0,-5.071,11144222 
WAVCIS,ioos:station:WAVCIS:CSI06:1,2016-03-05T13:00:00Z,28.8667,-90.4833,100.0,-5.05,11144222 
WAVCIS,ioos:station:WAVCIS:CSI06:1,2016-03-05T14:00:00Z,28.8667,-90.4833,100.0,-5.173,11144222 
WAVCIS,ioos:station:WAVCIS:CSI06:1,2016-03-05T15:00:00Z,28.8667,-90.4833,100.0,-5.127,11144222 
WAVCIS,ioos:station:WAVCIS:CSI06:1,2016-03-05T16:00:00Z,28.8667,-90.4833,100.0,-5.174,11144222 
WAVCIS,ioos:station:WAVCIS:CSI06:1,2016-03-05T17:00:00Z,28.8667,-90.4833,100.0,-5.44,11144222 
WAVCIS,ioos:station:WAVCIS:CSI06:1,2016-03-05T18:00:00Z,28.8667,-90.4833,100.0,-5.474,11144222 
WAVCIS,ioos:station:WAVCIS:CSI06:1,2016-03-05T19:00:00Z,28.8667,-90.4833,100.0,-5.301,11144222 
WAVCIS,ioos:station:WAVCIS:CSI06:1,2016-03-05T20:00:00Z,28.8667,-90.4833,100.0,-5.305,11144222 
WAVCIS,ioos:station:WAVCIS:CSI06:1,2016-03-05T21:00:00Z,28.8667,-90.4833,100.0,-5.603,11144222 
WAVCIS,ioos:station:WAVCIS:CSI06:1,2016-03-05T22:00:00Z,28.8667,-90.4833,100.0,-5.113,11144222 
WAVCIS,ioos:station:WAVCIS:CSI06:1,2016-03-05T23:00:00Z,28.8667,-90.4833,100.0,-5.098,11144222 
WAVCIS,ioos:station:WAVCIS:CSI06:1,2016-03-06T00:00:00Z,28.8667,-90.4833,100.0,-5.273,11144222 
WAVCIS,ioos:station:WAVCIS:CSI06:1,2016-03-06T01:00:00Z,28.8667,-90.4833,100.0,-5.047,11144222 
WAVCIS,ioos:station:WAVCIS:CSI06:1,2016-03-06T02:00:00Z,28.8667,-90.4833,100.0,-5.279,11144222 
WAVCIS,ioos:station:WAVCIS:CSI06:1,2016-03-06T03:00:00Z,28.8667,-90.4833,100.0,-5.612,11144222 
WAVCIS,ioos:station:WAVCIS:CSI06:1,2016-03-06T04:00:00Z,28.8667,-90.4833,100.0,-5.658,11144222 
WAVCIS,ioos:station:WAVCIS:CSI06:1,2016-03-06T05:00:00Z,28.8667,-90.4833,100.0,-5.069,11144222 
WAVCIS,ioos:station:WAVCIS:CSI06:1,2016-03-06T06:00:00Z,28.8667,-90.4833,100.0,-4.656,11144222 
WAVCIS,ioos:station:WAVCIS:CSI06:1,2016-03-06T07:00:00Z,28.8667,-90.4833,100.0,1.857,11133222 
WAVCIS,ioos:station:WAVCIS:CSI06:1,2016-03-06T08:00:00Z,28.8667,-90.4833,100.0,1.543,11133222 
WAVCIS,ioos:station:WAVCIS:CSI06:1,2016-03-06T09:00:00Z,28.8667,-90.4833,100.0,0.072,11133222 
WAVCIS,ioos:station:WAVCIS:CSI06:1,2016-03-06T10:00:00Z,28.8667,-90.4833,100.0,-0.86,11144222 
WAVCIS,ioos:station:WAVCIS:CSI06:1,2016-03-06T11:00:00Z,28.8667,-90.4833,100.0,-1.688,11144222 
WAVCIS,ioos:station:WAVCIS:CSI06:1,2016-03-06T12:00:00Z,28.8667,-90.4833,100.0,-2.401,11144222 
WAVCIS,ioos:station:WAVCIS:CSI06:1,2016-03-06T13:00:00Z,28.8667,-90.4833,100.0,-2.937,11144222 
WAVCIS,ioos:station:WAVCIS:CSI06:1,2016-03-06T14:00:00Z,28.8667,-90.4833,100.0,-2.058,11144222 
WAVCIS,ioos:station:WAVCIS:CSI06:1,2016-03-06T15:00:00Z,28.8667,-90.4833,100.0,-2.359,11144222 
WAVCIS,ioos:station:WAVCIS:CSI06:1,2016-03-06T16:00:00Z,28.8667,-90.4833,100.0,-3.027,11144222 
WAVCIS,ioos:station:WAVCIS:CSI06:1,2016-03-06T17:00:00Z,28.8667,-90.4833,100.0,-3.28,11144222 
WAVCIS,ioos:station:WAVCIS:CSI06:1,2016-03-06T18:00:00Z,28.8667,-90.4833,100.0,-3.723,11144222 
WAVCIS,ioos:station:WAVCIS:CSI06:1,2016-03-06T19:00:00Z,28.8667,-90.4833,100.0,-3.604,11144222 
WAVCIS,ioos:station:WAVCIS:CSI06:1,2016-03-06T20:00:00Z,28.8667,-90.4833,100.0,-3.618,11144222 
WAVCIS,ioos:station:WAVCIS:CSI06:1,2016-03-06T21:00:00Z,28.8667,-90.4833,100.0,-3.84,11144222 
WAVCIS,ioos:station:WAVCIS:CSI06:1,2016-03-06T22:00:00Z,28.8667,-90.4833,100.0,-4.004,11144222 
WAVCIS,ioos:station:WAVCIS:CSI06:1,2016-03-06T23:00:00Z,28.8667,-90.4833,100.0,-3.446,11144222 
WAVCIS,ioos:station:WAVCIS:CSI06:1,2016-03-07T00:00:00Z,28.8667,-90.4833,100.0,-2.44,11144222 
WAVCIS,ioos:station:WAVCIS:CSI06:1,2016-03-07T01:00:00Z,28.8667,-90.4833,100.0,-2.492,11144222 
WAVCIS,ioos:station:WAVCIS:CSI06:1,2016-03-07T02:00:00Z,28.8667,-90.4833,100.0,-2.719,11144222 
WAVCIS,ioos:station:WAVCIS:CSI06:1,2016-03-07T03:00:00Z,28.8667,-90.4833,100.0,-2.668,11144222 
WAVCIS,ioos:station:WAVCIS:CSI06:1,2016-03-07T04:00:00Z,28.8667,-90.4833,100.0,-2.814,11144222 
WAVCIS,ioos:station:WAVCIS:CSI06:1,2016-03-07T05:00:00Z,28.8667,-90.4833,100.0,-2.942,11144222 
WAVCIS,ioos:station:WAVCIS:CSI06:1,2016-03-07T06:00:00Z,28.8667,-90.4833,100.0,-2.749,11144222 
WAVCIS,ioos:station:WAVCIS:CSI06:1,2016-03-07T07:00:00Z,28.8667,-90.4833,100.0,-2.74,11144222 
WAVCIS,ioos:station:WAVCIS:CSI06:1,2016-03-07T08:00:00Z,28.8667,-90.4833,100.0,-2.629,11144222 
WAVCIS,ioos:station:WAVCIS:CSI06:1,2016-03-07T09:00:00Z,28.8667,-90.4833,100.0,-3.284,11144222 
WAVCIS,ioos:station:WAVCIS:CSI06:1,2016-03-07T10:00:00Z,28.8667,-90.4833,100.0,-3.212,11144222 
WAVCIS,ioos:station:WAVCIS:CSI06:1,2016-03-07T11:00:00Z,28.8667,-90.4833,100.0,-1.394,11144222 
WAVCIS,ioos:station:WAVCIS:CSI06:1,2016-03-07T12:00:00Z,28.8667,-90.4833,100.0,-0.644,11144222 
WAVCIS,ioos:station:WAVCIS:CSI06:1,2016-03-07T13:00:00Z,28.8667,-90.4833,100.0,-0.877,11144222 
WAVCIS,ioos:station:WAVCIS:CSI06:1,2016-03-07T14:00:00Z,28.8667,-90.4833,100.0,-1.717,11144222 
WAVCIS,ioos:station:WAVCIS:CSI06:1,2016-03-07T15:00:00Z,28.8667,-90.4833,100.0,-2.341,11144222 
WAVCIS,ioos:station:WAVCIS:CSI06:1,2016-03-07T16:00:00Z,28.8667,-90.4833,100.0,-2.266,11144222 
WAVCIS,ioos:station:WAVCIS:CSI06:1,2016-03-07T17:00:00Z,28.8667,-90.4833,100.0,-2.262,11144222 
WAVCIS,ioos:station:WAVCIS:CSI06:1,2016-03-07T18:00:00Z,28.8667,-90.4833,100.0,-2.57,11144222 
WAVCIS,ioos:station:WAVCIS:CSI06:1,2016-03-07T19:00:00Z,28.8667,-90.4833,100.0,-2.566,11144222 
WAVCIS,ioos:station:WAVCIS:CSI06:1,2016-03-07T20:00:00Z,28.8667,-90.4833,100.0,-2.471,11144222 
WAVCIS,ioos:station:WAVCIS:CSI06:1,2016-03-07T21:00:00Z,28.8667,-90.4833,100.0,-2.467,11144222 
WAVCIS,ioos:station:WAVCIS:CSI06:1,2016-03-07T22:00:00Z,28.8667,-90.4833,100.0,-2.094,11144222 
WAVCIS,ioos:station:WAVCIS:CSI06:1,2016-03-07T23:00:00Z,28.8667,-90.4833,100.0,-2.441,11144222 
WAVCIS,ioos:station:WAVCIS:CSI06:1,2016-03-08T00:00:00Z,28.8667,-90.4833,100.0,-2.806,11144222 
WAVCIS,ioos:station:WAVCIS:CSI06:1,2016-03-08T01:00:00Z,28.8667,-90.4833,100.0,-2.775,11144222 
WAVCIS,ioos:station:WAVCIS:CSI06:1,2016-03-08T02:00:00Z,28.8667,-90.4833,100.0,-3.0,11144222 
WAVCIS,ioos:station:WAVCIS:CSI06:1,2016-03-08T03:00:00Z,28.8667,-90.4833,100.0,-3.065,11144222 
WAVCIS,ioos:station:WAVCIS:CSI06:1,2016-03-08T04:00:00Z,28.8667,-90.4833,100.0,-3.187,11144222 
WAVCIS,ioos:station:WAVCIS:CSI06:1,2016-03-08T05:00:00Z,28.8667,-90.4833,100.0,-3.244,11144222 
WAVCIS,ioos:station:WAVCIS:CSI06:1,2016-03-08T06:00:00Z,28.8667,-90.4833,100.0,-3.226,11144222 
WAVCIS,ioos:station:WAVCIS:CSI06:1,2016-03-08T07:00:00Z,28.8667,-90.4833,100.0,-3.388,11144222 
WAVCIS,ioos:station:WAVCIS:CSI06:1,2016-03-08T08:00:00Z,28.8667,-90.4833,100.0,-3.485,11144222 
WAVCIS,ioos:station:WAVCIS:CSI06:1,2016-03-08T09:00:00Z,28.8667,-90.4833,100.0,-3.624,11144222 
WAVCIS,ioos:station:WAVCIS:CSI06:1,2016-03-08T10:00:00Z,28.8667,-90.4833,100.0,-3.262,11144222 
WAVCIS,ioos:station:WAVCIS:CSI06:1,2016-03-08T11:00:00Z,28.8667,-90.4833,100.0,-3.279,11144222 
WAVCIS,ioos:station:WAVCIS:CSI06:1,2016-03-08T12:00:00Z,28.8667,-90.4833,100.0,-3.989,11144222 
WAVCIS,ioos:station:WAVCIS:CSI06:1,2016-03-08T13:00:00Z,28.8667,-90.4833,100.0,-4.269,11144222 
WAVCIS,ioos:station:WAVCIS:CSI06:1,2016-03-08T14:00:00Z,28.8667,-90.4833,100.0,-4.391,11144222 
WAVCIS,ioos:station:WAVCIS:CSI06:1,2016-03-08T15:00:00Z,28.8667,-90.4833,100.0,-4.679,11144222 
WAVCIS,ioos:station:WAVCIS:CSI06:1,2016-03-08T16:00:00Z,28.8667,-90.4833,100.0,-4.164,11144222 
WAVCIS,ioos:station:WAVCIS:CSI06:1,2016-03-08T17:00:00Z,28.8667,-90.4833,100.0,-3.738,11144222 
WAVCIS,ioos:station:WAVCIS:CSI06:1,2016-03-08T18:00:00Z,28.8667,-90.4833,100.0,-3.308,11144222 
WAVCIS,ioos:station:WAVCIS:CSI06:1,2016-03-08T19:00:00Z,28.8667,-90.4833,100.0,-3.376,11144222 
WAVCIS,ioos:station:WAVCIS:CSI06:1,2016-03-08T20:00:00Z,28.8667,-90.4833,100.0,-3.517,11144222 
WAVCIS,ioos:station:WAVCIS:CSI06:1,2016-03-08T21:00:00Z,28.8667,-90.4833,100.0,-3.727,11144222 
WAVCIS,ioos:station:WAVCIS:CSI06:1,2016-03-08T22:00:00Z,28.8667,-90.4833,100.0,-3.909,11144222 
WAVCIS,ioos:station:WAVCIS:CSI06:1,2016-03-08T23:00:00Z,28.8667,-90.4833,100.0,-3.659,11144222 
WAVCIS,ioos:station:WAVCIS:CSI06:1,2016-03-09T00:00:00Z,28.8667,-90.4833,100.0,-1.809,11144222 
WAVCIS,ioos:station:WAVCIS:CSI06:1,2016-03-09T01:00:00Z,28.8667,-90.4833,100.0,-2.377,11144222 
WAVCIS,ioos:station:WAVCIS:CSI06:1,2016-03-09T02:00:00Z,28.8667,-90.4833,100.0,-2.936,11144222 
WAVCIS,ioos:station:WAVCIS:CSI06:1,2016-03-09T03:00:00Z,28.8667,-90.4833,100.0,-3.494,11144222 
WAVCIS,ioos:station:WAVCIS:CSI06:1,2016-03-09T04:00:00Z,28.8667,-90.4833,100.0,-3.616,11144222 
WAVCIS,ioos:station:WAVCIS:CSI06:1,2016-03-09T05:00:00Z,28.8667,-90.4833,100.0,-3.488,11144222 
WAVCIS,ioos:station:WAVCIS:CSI06:1,2016-03-09T06:00:00Z,28.8667,-90.4833,100.0,-3.23,11144222 
WAVCIS,ioos:station:WAVCIS:CSI06:1,2016-03-09T07:00:00Z,28.8667,-90.4833,100.0,-3.816,11144222 
WAVCIS,ioos:station:WAVCIS:CSI06:1,2016-03-09T08:00:00Z,28.8667,-90.4833,100.0,-4.199,11144222 
WAVCIS,ioos:station:WAVCIS:CSI06:1,2016-03-09T09:00:00Z,28.8667,-90.4833,100.0,-4.329,11144222 
WAVCIS,ioos:station:WAVCIS:CSI06:1,2016-03-09T10:00:00Z,28.8667,-90.4833,100.0,-4.376,11144222 
WAVCIS,ioos:station:WAVCIS:CSI06:1,2016-03-09T11:00:00Z,28.8667,-90.4833,100.0,-4.368,11144222 
WAVCIS,ioos:station:WAVCIS:CSI06:1,2016-03-09T12:00:00Z,28.8667,-90.4833,100.0,-4.407,11144222 
WAVCIS,ioos:station:WAVCIS:CSI06:1,2016-03-09T13:00:00Z,28.8667,-90.4833,100.0,-4.044,11144222 
WAVCIS,ioos:station:WAVCIS:CSI06:1,2016-03-09T14:00:00Z,28.8667,-90.4833,100.0,-3.468,11144222 
WAVCIS,ioos:station:WAVCIS:CSI06:1,2016-03-09T15:00:00Z,28.8667,-90.4833,100.0,-0.434,11144222 
WAVCIS,ioos:station:WAVCIS:CSI06:1,2016-03-09T16:00:00Z,28.8667,-90.4833,100.0,-1.774,11144222 
WAVCIS,ioos:station:WAVCIS:CSI06:1,2016-03-09T17:00:00Z,28.8667,-90.4833,100.0,-2.362,11144222 
WAVCIS,ioos:station:WAVCIS:CSI06:1,2016-03-09T18:00:00Z,28.8667,-90.4833,100.0,-2.8,11144222 
WAVCIS,ioos:station:WAVCIS:CSI06:1,2016-03-09T19:00:00Z,28.8667,-90.4833,100.0,-2.207,11144222 
WAVCIS,ioos:station:WAVCIS:CSI06:1,2016-03-09T20:00:00Z,28.8667,-90.4833,100.0,-14.15,11144222 
WAVCIS,ioos:station:WAVCIS:CSI06:1,2016-03-09T21:00:00Z,28.8667,-90.4833,100.0,-14.88,11144222 
WAVCIS,ioos:station:WAVCIS:CSI06:1,2016-03-09T22:00:00Z,28.8667,-90.4833,100.0,-15.28,11144222 
WAVCIS,ioos:station:WAVCIS:CSI06:1,2016-03-09T23:00:00Z,28.8667,-90.4833,100.0,-15.53,11144222 
WAVCIS,ioos:station:WAVCIS:CSI06:1,2016-03-10T00:00:00Z,28.8667,-90.4833,100.0,-15.94,11144222 
WAVCIS,ioos:station:WAVCIS:CSI06:1,2016-03-10T01:00:00Z,28.8667,-90.4833,100.0,-16.05,11144222 
WAVCIS,ioos:station:WAVCIS:CSI06:1,2016-03-10T02:00:00Z,28.8667,-90.4833,100.0,-16.15,11144222 
WAVCIS,ioos:station:WAVCIS:CSI06:1,2016-03-10T03:00:00Z,28.8667,-90.4833,100.0,-16.36,11144222 
WAVCIS,ioos:station:WAVCIS:CSI06:1,2016-03-10T04:00:00Z,28.8667,-90.4833,100.0,-16.69,11144222 
WAVCIS,ioos:station:WAVCIS:CSI06:1,2016-03-10T05:00:00Z,28.8667,-90.4833,100.0,-15.84,11144222 
WAVCIS,ioos:station:WAVCIS:CSI06:1,2016-03-10T06:00:00Z,28.8667,-90.4833,100.0,-14.77,11144222 
WAVCIS,ioos:station:WAVCIS:CSI06:1,2016-03-10T07:00:00Z,28.8667,-90.4833,100.0,-14.98,11144222 
WAVCIS,ioos:station:WAVCIS:CSI06:1,2016-03-10T08:00:00Z,28.8667,-90.4833,100.0,-15.19,11144222 
WAVCIS,ioos:station:WAVCIS:CSI06:1,2016-03-10T09:00:00Z,28.8667,-90.4833,100.0,-16.06,11144222 
WAVCIS,ioos:station:WAVCIS:CSI06:1,2016-03-10T10:00:00Z,28.8667,-90.4833,100.0,-16.43,11144222 
WAVCIS,ioos:station:WAVCIS:CSI06:1,2016-03-10T11:00:00Z,28.8667,-90.4833,100.0,-16.89,11144222 
WAVCIS,ioos:station:WAVCIS:CSI06:1,2016-03-10T12:00:00Z,28.8667,-90.4833,100.0,-17.32,11144222 
WAVCIS,ioos:station:WAVCIS:CSI06:1,2016-03-10T13:00:00Z,28.8667,-90.4833,100.0,-17.64,11144222 
WAVCIS,ioos:station:WAVCIS:CSI06:1,2016-03-10T14:00:00Z,28.8667,-90.4833,100.0,-17.38,11144222 
WAVCIS,ioos:station:WAVCIS:CSI06:1,2016-03-10T15:00:00Z,28.8667,-90.4833,100.0,-17.45,11144222 
WAVCIS,ioos:station:WAVCIS:CSI06:1,2016-03-10T16:00:00Z,28.8667,-90.4833,100.0,-17.73,11144222 
WAVCIS,ioos:station:WAVCIS:CSI06:1,2016-03-10T17:00:00Z,28.8667,-90.4833,100.0,-18.09,11144222 
WAVCIS,ioos:station:WAVCIS:CSI06:1,2016-03-10T18:00:00Z,28.8667,-90.4833,100.0,-18.32,11144222 
WAVCIS,ioos:station:WAVCIS:CSI06:1,2016-03-10T19:00:00Z,28.8667,-90.4833,100.0,-18.5,11144222 
WAVCIS,ioos:station:WAVCIS:CSI06:1,2016-03-10T20:00:00Z,28.8667,-90.4833,100.0,-18.6,11144222 
WAVCIS,ioos:station:WAVCIS:CSI06:1,2016-03-10T21:00:00Z,28.8667,-90.4833,100.0,-18.79,11144222 
WAVCIS,ioos:station:WAVCIS:CSI06:1,2016-03-10T22:00:00Z,28.8667,-90.4833,100.0,-18.81,11144222 
WAVCIS,ioos:station:WAVCIS:CSI06:1,2016-03-10T23:00:00Z,28.8667,-90.4833,100.0,-18.83,11144222 
WAVCIS,ioos:station:WAVCIS:CSI06:1,2016-03-11T00:00:00Z,28.8667,-90.4833,100.0,-18.87,11144222 
WAVCIS,ioos:station:WAVCIS:CSI06:1,2016-03-11T01:00:00Z,28.8667,-90.4833,100.0,-19.03,11144222 
WAVCIS,ioos:station:WAVCIS:CSI06:1,2016-03-11T02:00:00Z,28.8667,-90.4833,100.0,-19.09,11144222 
WAVCIS,ioos:station:WAVCIS:CSI06:1,2016-03-11T03:00:00Z,28.8667,-90.4833,100.0,-19.17,11144222 
WAVCIS,ioos:station:WAVCIS:CSI06:1,2016-03-11T04:00:00Z,28.8667,-90.4833,100.0,-19.27,11144222 
WAVCIS,ioos:station:WAVCIS:CSI06:1,2016-03-11T05:00:00Z,28.8667,-90.4833,100.0,-19.4,11144222 
WAVCIS,ioos:station:WAVCIS:CSI06:1,2016-03-11T06:00:00Z,28.8667,-90.4833,100.0,-19.45,11144222 
WAVCIS,ioos:station:WAVCIS:CSI06:1,2016-03-11T07:00:00Z,28.8667,-90.4833,100.0,-19.58,11144222 
WAVCIS,ioos:station:WAVCIS:CSI06:1,2016-03-11T08:00:00Z,28.8667,-90.4833,100.0,-19.66,11144222 
WAVCIS,ioos:station:WAVCIS:CSI06:1,2016-03-11T09:00:00Z,28.8667,-90.4833,100.0,-19.75,11144222 